Terug naar catalogus

ONEWEB-0449

ActiefCommunicatiePO
NORAD 51642·PAYLOAD·🇬🇧 United Kingdom

Gelanceerd Feb 10, 2022 vanaf Guiana Space Centre

Loading…

Volgende Passages (komende 24 uur)

TLE

VersSource: CelesTrak SupGP

Epoch: Sep 14, 2026, 14:51 UTC

1 51642C 22012W   26257.61925185 -.00000563  00000+0 -16136-2 0  2575
2 51642  87.8907  18.4623 0001834 118.4785 351.6493 13.10369244    18

Volg ONEWEB-0449 in realtime met AllMySat

Download on the App Store